Terminal Aerodrome Forecast
Issued by NWS San Angelo, TX

Home | Current Version | Previous Version | Text Only | Print | Product List | Glossary On
Versions: 1 2 3 4 5 6 7 8 9 10 11 12 13 14 15 16 17 18 19 20 21 22 23 24 25 26 27 28
000
FTUS44 KSJT 222300
TAFABI
TAF
KABI 222334Z 2300/2324 14011KT P6SM BKN015
     FM230400 14013KT P6SM OVC008
     FM230600 15013G19KT 6SM -DZ BR OVC005
     FM231600 16014G20KT P6SM VCSH OVC010
     FM231900 16015G21KT P6SM SHRA VCTS OVC020CB=

USA.gov is the U.S. government's official web portal to all federal, state and local government web resources and services.